QPF
0.00 0.00 0.00 0.00 0.00 0.00 0.00 0.00 0.00 0.00 0.00 0.00 0.00 0.00 0.00 0.00 0.00 0.00 0.00 0.00 0.00 0.00 0.00 0.00 0.00 0.00 0.00 0.00 0.00 0.00 0.00 0.00 0.00 0.01 0.01 0.01 0.01 0.01 0.01 0.01 0.01 0.01 0.00 0.00 0.00 0.00 0.00 0.00 0.00
0.00 0.00 0.00 0.00 0.00 0.00 0.00 0.00 0.00 0.00 0.00 0.00 0.00 0.00 0.00 0.00 0.00 0.00 0.00 0.00 0.00 0.00 0.00 0.00 0.00 0.00 0.00 0.00 0.00 0.00 0.00 0.00 0.00 0.00 0.00 0.00 0.00 0.00 0.01 0.01 0.01 0.01 0.00 0.00 0.00 0.00 0.00 0.00 0.00
0.00 0.00 0.00 0.00 0.00 0.00 0.00 0.00 0.00 0.00 0.00 0.00 0.00 0.00 0.00 0.00 0.00 0.00 0.00 0.00 0.00 0.00 0.00 0.00 0.00 0.00 0.00 0.00 0.00 0.00 0.00 0.00 0.00 0.00 0.00 0.00 0.00 0.00 0.00 0.00 0.00 0.00 0.00 0.01 0.01 0.01 0.00 0.00 0.00
0.00 0.00 0.00 0.00 0.00 0.00 0.00 0.00 0.00 0.00 0.00 0.00 0.00 0.00 0.00 0.00 0.00 0.00 0.00 0.00 0.00 0.00 0.00 0.00 0.00 0.00 0.00 0.00 0.00 0.00 0.00 0.00 0.00 0.00 0.00 0.00 0.00 0.00 0.00 0.00 0.00 0.00 0.00 0.00 0.01 0.01 0.01 0.01 0.00
0.00 0.00 0.00 0.00 0.00 0.00 0.00 0.00 0.00 0.00 0.00 0.00 0.00 0.00 0.00 0.00 0.00 0.00 0.00 0.00 0.00 0.00 0.00 0.00 0.00 0.00 0.00 0.00 0.00 0.00 0.00 0.00 0.00 0.00 0.00 0.00 0.00 0.00 0.00 0.00 0.00 0.00 0.00 0.00 0.00 0.00 0.00 0.00 0.00
0.00 0.00 0.00 0.00 0.00 0.00 0.00 0.00 0.00 0.00 0.00 0.00 0.00 0.00 0.00 0.00 0.00 0.00 0.00 0.00 0.00 0.00 0.00 0.00 0.00 0.00 0.00 0.00 0.00 0.00 0.00 0.00 0.00 0.00 0.00 0.00 0.00 0.00 0.00 0.00 0.00 0.00 0.00 0.00 0.00 0.00 0.00 0.00 0.00
0.00 0.00 0.00 0.00 0.00 0.00 0.00 0.00 0.00 0.00 0.00 0.00 0.00 0.00 0.00 0.00 0.00 0.00 0.00 0.00 0.00 0.00 0.00 0.00 0.00 0.00 0.00 0.00 0.00 0.00 0.00 0.00 0.00 0.00 0.00 0.00 0.00 0.00 0.00 0.00 0.00 0.00 0.00 0.00 0.00 0.00 0.00 0.00 0.00
0.00 0.00 0.00 0.00 0.00 0.00 0.00 0.00 0.00 0.00 0.00 0.00 0.00 0.00 0.00 0.00 0.00 0.00 0.00 0.00 0.00 0.00 0.00 0.00 0.00 0.00 0.00 0.00 0.00 0.00 0.00 0.00 0.00 0.00 0.00 0.00 0.00 0.00 0.00 0.00 0.00 0.00 0.00 0.00 0.00 0.00 0.00 0.00 0.00
0.00 0.00 0.00 0.00 0.00 0.00 0.00 0.00 0.00 0.00 0.00 0.00 0.00 0.00 0.00 0.00 0.00 0.00 0.00 0.00 0.00 0.00 0.00 0.00 0.00 0.00 0.00 0.00 0.00 0.00 0.00 0.00 0.00 0.00 0.00 0.00 0.00 0.00 0.00 0.00 0.00 0.00 0.00 0.00 0.00 0.00 0.00 0.00 0.00
0.00 0.00 0.00 0.00 0.00 0.00 0.00 0.00 0.00 0.00 0.00 0.00 0.00 0.00 0.00 0.00 0.00 0.00 0.00 0.00 0.00 0.00 0.00 0.00 0.00 0.00 0.00 0.00 0.00 0.00 0.00 0.00 0.00 0.00 0.00 0.00 0.00 0.00 0.00 0.00 0.00 0.00 0.00 0.00 0.00 0.00 0.00 0.00 0.00
0.00 0.00 0.00 0.00 0.00 0.00 0.00 0.00 0.00 0.00 0.00 0.00 0.00 0.00 0.00 0.00 0.00 0.00 0.00 0.00 0.00 0.00 0.00 0.00 0.00 0.00 0.00 0.00 0.00 0.00 0.00 0.00 0.00 0.00 0.00 0.00 0.00 0.00 0.00 0.00 0.00 0.00 0.00 0.00 0.00 0.00 0.00 0.00 0.00
0.00 0.00 0.00 0.00 0.00 0.00 0.00 0.00 0.00 0.00 0.00 0.00 0.00 0.00 0.00 0.00 0.00 0.00 0.00 0.00 0.00 0.00 0.00 0.00 0.00 0.00 0.00 0.00 0.00 0.00 0.00 0.00 0.00 0.00 0.00 0.00 0.00 0.00 0.00 0.00 0.00 0.00 0.00 0.00 0.00 0.00 0.00 0.00 0.00
0.00 0.00 0.00 0.00 0.00 0.00 0.00 0.00 0.00 0.00 0.00 0.00 0.00 0.00 0.00 0.00 0.00 0.00 0.00 0.00 0.00 0.00 0.00 0.00 0.00 0.00 0.00 0.00 0.00 0.00 0.00 0.00 0.00 0.00 0.00 0.00 0.00 0.00 0.00 0.00 0.00 0.00 0.00 0.00 0.00 0.00 0.00 0.00 0.00
0.00 0.00 0.00 0.00 0.00 0.00 0.00 0.00 0.00 0.00 0.00 0.00 0.00 0.00 0.00 0.00 0.00 0.00 0.00 0.00 0.00 0.00 0.00 0.00 0.00 0.00 0.00 0.00 0.00 0.00 0.00 0.00 0.00 0.00 0.00 0.00 0.00 0.00 0.00 0.00 0.00 0.00 0.00 0.00 0.00 0.00 0.00 0.00 0.00
0.00 0.00 0.00 0.00 0.00 0.00 0.00 0.00 0.00 0.00 0.00 0.00 0.00 0.00 0.00 0.00 0.00 0.00 0.00 0.00 0.00 0.00 0.00 0.00 0.00 0.00 0.00 0.00 0.00 0.00 0.00 0.00 0.00 0.00 0.00 0.00 0.00 0.00 0.00 0.00 0.00 0.00 0.00 0.00 0.00 0.00 0.00 0.00 0.00
0.00 0.00 0.00 0.00 0.00 0.00 0.00 0.00 0.00 0.00 0.00 0.00 0.00 0.00 0.00 0.00 0.00 0.00 0.00 0.00 0.00 0.00 0.00 0.00 0.00 0.00 0.00 0.00 0.00 0.00 0.00 0.00 0.00 0.00 0.00 0.00 0.00 0.00 0.00 0.00 0.00 0.00 0.00 0.00 0.00 0.00 0.00 0.00 0.00
0.00 0.00 0.00 0.00 0.00 0.00 0.00 0.00 0.00 0.00 0.00 0.00 0.00 0.00 0.00 0.00 0.00 0.00 0.00 0.00 0.00 0.00 0.00 0.00 0.00 0.00 0.00 0.00 0.00 0.00 0.00 0.00 0.00 0.00 0.00 0.00 0.00 0.00 0.00 0.00 0.00 0.00 0.00 0.00 0.00 0.00 0.00 0.00 0.00
0.00 0.00 0.00 0.00 0.00 0.00 0.00 0.00 0.00 0.00 0.00 0.00 0.00 0.00 0.00 0.00 0.00 0.00 0.00 0.00 0.00 0.00 0.00 0.00 0.00 0.00 0.00 0.00 0.00 0.00 0.00 0.00 0.00 0.00 0.00 0.00 0.00 0.00 0.00 0.00 0.00 0.00 0.00 0.00 0.00 0.00 0.00 0.00 0.00
0.00 0.00 0.00 0.00 0.00 0.00 0.00 0.00 0.00 0.00 0.00 0.00 0.00 0.00 0.00 0.00 0.00 0.00 0.00 0.00 0.00 0.00 0.00 0.00 0.00 0.00 0.00 0.00 0.00 0.00 0.00 0.00 0.00 0.00 0.00 0.00 0.00 0.00 0.00 0.00 0.00 0.00 0.00 0.00 0.00 0.00 0.00 0.00 0.00
0.00 0.00 0.00 0.00 0.00 0.00 0.00 0.00 0.00 0.00 0.00 0.00 0.00 0.00 0.00 0.00 0.00 0.00 0.00 0.00 0.00 0.00 0.00 0.00 0.00 0.00 0.00 0.00 0.00 0.00 0.00 0.00 0.00 0.00 0.00 0.00 0.00 0.00 0.00 0.00 0.00 0.00 0.00 0.00 0.00 0.00 0.00 0.00 0.00
0.00 0.00 0.00 0.00 0.00 0.00 0.00 0.00 0.00 0.00 0.00 0.00 0.00 0.00 0.00 0.00 0.00 0.00 0.00 0.00 0.00 0.00 0.00 0.00 0.00 0.00 0.00 0.00 0.00 0.00 0.00 0.00 0.00 0.00 0.00 0.00 0.00 0.00 0.00 0.00 0.00 0.00 0.00 0.00 0.00 0.00 0.00 0.00 0.00
0.00 0.00 0.00 0.00 0.00 0.00 0.00 0.00 0.00 0.00 0.00 0.00 0.00 0.00 0.00 0.00 0.00 0.00 0.00 0.00 0.00 0.00 0.00 0.00 0.00 0.00 0.00 0.00 0.00 0.00 0.00 0.00 0.00 0.00 0.00 0.00 0.00 0.00 0.00 0.00 0.00 0.00 0.00 0.00 0.00 0.00 0.00 0.00 0.00
0.00 0.00 0.00 0.00 0.00 0.00 0.00 0.00 0.00 0.00 0.00 0.00 0.00 0.00 0.00 0.00 0.00 0.00 0.00 0.00 0.00 0.00 0.00 0.00 0.00 0.00 0.00 0.00 0.00 0.00 0.00 0.00 0.00 0.00 0.00 0.00 0.00 0.00 0.00 0.00 0.00 0.00 0.00 0.00 0.00 0.00 0.00 0.00 0.00
0.00 0.00 0.00 0.00 0.00 0.00 0.00 0.00 0.00 0.00 0.00 0.00 0.00 0.00 0.00 0.00 0.00 0.00 0.00 0.00 0.00 0.00 0.00 0.00 0.00 0.00 0.00 0.00 0.00 0.00 0.00 0.00 0.00 0.00 0.00 0.00 0.00 0.00 0.00 0.00 0.00 0.00 0.00 0.00 0.00 0.00 0.00 0.00 0.00
0.00 0.00 0.00 0.00 0.00 0.00 0.00 0.00 0.00 0.00 0.00 0.00 0.00 0.00 0.00 0.00 0.00 0.00 0.00 0.00 0.00 0.00 0.00 0.00 0.00 0.00 0.00 0.00 0.00 0.00 0.00 0.00 0.00 0.00 0.00 0.00 0.00 0.00 0.00 0.00 0.00 0.00 0.00 0.00 0.00 0.00 0.00 0.00 0.00
0.00 0.00 0.00 0.00 0.00 0.00 0.00 0.00 0.00 0.00 0.00 0.00 0.00 0.00 0.00 0.00 0.00 0.00 0.00 0.00 0.00 0.00 0.00 0.00 0.00 0.00 0.00 0.00 0.00 0.00 0.00 0.00 0.00 0.00 0.00 0.00 0.00 0.00 0.00 0.00 0.00 0.00 0.00 0.00 0.00 0.00 0.00 0.00 0.00
0.00 0.00 0.00 0.00 0.00 0.00 0.00 0.00 0.00 0.00 0.00 0.00 0.00 0.00 0.00 0.00 0.00 0.00 0.00 0.00 0.00 0.00 0.00 0.00 0.00 0.00 0.00 0.00 0.00 0.00 0.00 0.00 0.00 0.00 0.00 0.00 0.00 0.00 0.00 0.00 0.00 0.00 0.00 0.00 0.00 0.00 0.00 0.00 0.00
0.00 0.00 0.00 0.00 0.00 0.00 0.00 0.00 0.00 0.00 0.00 0.00 0.00 0.00 0.00 0.00 0.00 0.00 0.00 0.00 0.00 0.00 0.00 0.00 0.00 0.00 0.00 0.00 0.00 0.00 0.00 0.00 0.00 0.00 0.00 0.00 0.00 0.00 0.00 0.00 0.00 0.00 0.00 0.00 0.00 0.00 0.00 0.00 0.00
0.00 0.00 0.00 0.00 0.00 0.00 0.00 0.00 0.00 0.00 0.00 0.00 0.00 0.00 0.00 0.00 0.00 0.00 0.00 0.00 0.00 0.00 0.00 0.00 0.00 0.00 0.00 0.00 0.00 0.00 0.00 0.00 0.00 0.00 0.00 0.00 0.00 0.00 0.00 0.00 0.00 0.00 0.00 0.00 0.00 0.00 0.00 0.00 0.00
0.00 0.00 0.00 0.00 0.00 0.00 0.00 0.00 0.00 0.00 0.00 0.00 0.00 0.00 0.00 0.00 0.00 0.00 0.00 0.00 0.00 0.00 0.00 0.00 0.00 0.00 0.00 0.00 0.00 0.00 0.00 0.00 0.00 0.00 0.00 0.00 0.00 0.00 0.00 0.00 0.00 0.00 0.00 0.00 0.00 0.00 0.00 0.00 0.00
MSLP
1015.89 1016.09 1016.22 1016.48 1017.92 1018.59 1019.31 1019.44 1019.37 1019.65 1020.03 1020.31 1020.57 1020.80 1021.05 1021.99 1022.49 1023.74 1023.95 1024.25 1024.27 1024.14 1023.59 1022.91 1022.31 1021.83 1021.56 1021.33 1021.10 1020.91 1020.72 1020.62 1020.52 1020.45 1020.40 1020.30 1020.22 1020.12 1020.02 1020.01 1019.96 1019.94 1019.85 1019.71 1019.57 1019.49 1019.41 1019.44 1019.49
1016.00 1016.09 1016.50 1017.38 1018.34 1019.17 1019.50 1019.39 1019.44 1019.65 1020.33 1020.75 1021.03 1021.58 1022.00 1022.59 1023.01 1023.57 1024.05 1024.32 1024.29 1024.05 1023.57 1023.04 1022.61 1022.23 1022.03 1021.76 1021.57 1021.45 1021.28 1021.16 1021.08 1020.98 1020.88 1020.79 1020.71 1020.51 1020.38 1020.24 1020.09 1020.01 1019.92 1019.76 1019.54 1019.29 1019.21 1019.32 1019.31
1015.98 1016.28 1017.11 1017.82 1018.83 1019.07 1019.06 1019.04 1019.37 1019.97 1020.49 1020.85 1021.68 1022.21 1022.47 1022.93 1023.42 1023.67 1024.18 1024.28 1024.25 1024.04 1023.75 1023.30 1022.88 1022.58 1022.47 1022.23 1021.96 1021.78 1021.77 1021.73 1021.67 1021.48 1021.33 1021.20 1021.19 1021.08 1020.92 1020.80 1020.54 1020.24 1020.06 1019.84 1019.62 1019.46 1019.32 1019.19 1019.16
1016.06 1016.80 1018.04 1018.06 1018.61 1018.61 1018.58 1018.79 1019.29 1020.33 1020.85 1021.06 1021.55 1022.47 1023.08 1023.27 1023.38 1023.72 1024.20 1024.36 1024.24 1024.26 1024.03 1023.48 1023.20 1023.01 1022.82 1022.57 1022.34 1022.18 1022.12 1022.02 1021.91 1021.78 1021.70 1021.59 1021.56 1021.42 1021.34 1021.26 1020.96 1020.72 1020.39 1020.04 1019.79 1019.54 1019.37 1019.26 1019.21
1016.68 1017.57 1018.27 1018.54 1018.54 1018.38 1018.37 1018.49 1019.02 1019.95 1020.45 1021.16 1021.59 1022.42 1023.16 1023.53 1023.71 1023.97 1024.29 1024.46 1024.34 1024.55 1024.37 1023.87 1023.59 1023.40 1023.13 1022.91 1022.74 1022.63 1022.49 1022.33 1022.22 1022.08 1022.04 1021.95 1021.79 1021.60 1021.53 1021.54 1021.26 1021.06 1020.84 1020.59 1020.32 1019.93 1019.61 1019.34 1019.08
1017.33 1018.07 1018.70 1018.84 1018.53 1018.35 1018.29 1018.55 1019.22 1019.99 1020.73 1021.50 1022.00 1022.65 1023.18 1023.27 1023.78 1024.17 1024.39 1024.55 1024.72 1024.73 1024.81 1024.68 1024.41 1023.98 1023.67 1023.45 1023.24 1023.02 1022.84 1022.69 1022.60 1022.53 1022.35 1022.22 1022.01 1021.86 1021.88 1021.69 1021.44 1021.22 1021.18 1020.99 1020.69 1020.26 1019.83 1019.36 1019.09
1017.35 1018.32 1018.70 1018.63 1018.48 1018.40 1018.15 1018.51 1019.27 1019.94 1020.74 1021.16 1021.55 1022.61 1023.08 1023.53 1023.70 1024.15 1024.46 1024.77 1024.89 1024.85 1024.64 1024.56 1024.45 1024.22 1024.04 1023.87 1023.69 1023.49 1023.34 1023.15 1023.09 1022.95 1022.76 1022.72 1022.56 1022.21 1022.04 1021.97 1021.64 1021.33 1021.11 1020.77 1020.52 1020.56 1020.11 1019.62 1019.14
1017.53 1018.40 1018.88 1018.69 1018.51 1018.09 1018.08 1018.62 1019.11 1019.69 1020.57 1021.12 1021.36 1021.95 1022.42 1022.69 1023.66 1024.24 1024.63 1024.81 1024.81 1024.85 1024.80 1024.70 1024.55 1024.43 1024.41 1024.31 1024.09 1023.94 1023.76 1023.58 1023.45 1023.42 1023.34 1023.13 1022.90 1022.77 1022.54 1022.21 1021.92 1021.46 1021.15 1020.83 1020.61 1020.12 1020.02 1019.95 1019.47
1017.38 1018.20 1018.75 1018.41 1018.55 1017.98 1018.35 1018.92 1019.57 1020.11 1020.66 1021.16 1021.23 1021.57 1021.87 1022.13 1023.44 1024.19 1024.64 1024.83 1024.84 1024.81 1024.69 1024.71 1024.65 1024.60 1024.45 1024.45 1024.49 1024.30 1024.11 1024.03 1023.96 1023.86 1023.64 1023.43 1023.19 1022.96 1022.87 1022.83 1022.34 1022.17 1021.77 1021.37 1020.96 1020.38 1020.06 1020.06 1019.83
1017.44 1018.17 1017.89 1017.62 1017.77 1017.86 1018.31 1018.88 1019.60 1020.38 1020.74 1021.04 1021.28 1021.62 1022.09 1022.42 1023.00 1023.43 1023.85 1024.21 1024.62 1024.75 1024.91 1024.91 1024.85 1024.73 1024.65 1024.58 1024.65 1024.45 1024.35 1024.39 1024.32 1024.13 1023.91 1023.65 1023.54 1023.40 1023.12 1022.89 1022.63 1022.28 1022.04 1021.65 1021.24 1020.76 1020.35 1019.92 1019.86
1017.29 1017.42 1017.28 1017.00 1017.29 1017.65 1018.29 1018.92 1019.43 1019.98 1020.41 1019.68 1019.96 1020.93 1021.92 1022.36 1022.78 1023.22 1023.65 1023.99 1024.19 1024.49 1024.74 1024.91 1024.76 1024.61 1024.39 1024.30 1024.35 1024.44 1024.38 1024.32 1024.27 1024.29 1024.29 1024.20 1023.88 1023.67 1023.34 1023.00 1022.76 1022.52 1022.06 1021.83 1021.42 1020.79 1020.49 1020.31 1020.02
1017.19 1017.16 1017.16 1016.89 1016.95 1017.53 1018.06 1018.57 1019.16 1019.51 1018.49 1018.91 1019.37 1020.05 1021.11 1021.80 1022.11 1022.36 1022.85 1023.38 1023.79 1024.12 1024.42 1024.58 1024.48 1024.28 1024.22 1024.21 1024.26 1024.36 1024.44 1024.56 1024.62 1024.73 1024.65 1024.40 1024.17 1024.02 1023.86 1023.52 1023.01 1022.33 1021.94 1021.62 1021.26 1020.89 1020.76 1020.46 1020.15
1017.03 1017.13 1017.06 1016.97 1017.15 1017.45 1017.93 1018.20 1018.73 1018.32 1018.34 1018.94 1019.53 1020.18 1020.61 1021.21 1021.76 1022.30 1022.73 1023.10 1023.41 1023.64 1023.84 1024.08 1024.24 1024.15 1024.18 1024.27 1024.43 1024.51 1024.63 1024.73 1024.86 1024.89 1025.02 1024.98 1024.76 1024.57 1024.23 1023.93 1023.63 1023.29 1022.80 1022.11 1021.53 1020.93 1020.60 1020.25 1019.85
1017.16 1017.19 1017.14 1017.19 1017.36 1017.69 1018.04 1018.33 1018.74 1017.53 1018.09 1018.94 1019.60 1019.93 1020.28 1020.58 1021.07 1022.05 1022.45 1022.74 1022.95 1023.12 1023.49 1023.78 1023.97 1024.16 1024.28 1024.38 1024.53 1024.54 1024.61 1024.82 1024.97 1025.09 1025.14 1025.08 1024.94 1024.73 1024.40 1023.96 1023.49 1023.04 1022.72 1022.22 1021.82 1021.14 1020.45 1020.09 1019.59
1017.36 1017.60 1017.34 1017.27 1017.53 1017.86 1018.16 1018.59 1017.93 1017.33 1018.25 1018.67 1019.16 1019.58 1020.02 1020.23 1020.83 1020.87 1021.44 1022.02 1022.35 1022.87 1023.33 1023.59 1023.80 1024.22 1024.30 1024.43 1024.54 1024.72 1024.90 1024.99 1024.92 1024.82 1024.82 1024.85 1024.81 1024.81 1024.60 1024.21 1023.80 1023.30 1022.93 1022.50 1021.78 1021.17 1020.72 1019.90 1019.14
1017.75 1017.95 1017.89 1017.28 1017.62 1017.79 1018.22 1017.12 1016.47 1016.94 1017.98 1018.25 1018.65 1019.11 1019.41 1019.67 1020.07 1020.68 1021.10 1021.67 1022.34 1022.83 1023.09 1023.25 1023.35 1023.87 1023.98 1024.06 1024.30 1024.56 1024.81 1024.83 1024.84 1024.90 1025.01 1024.93 1024.91 1024.58 1024.28 1023.87 1023.60 1023.46 1023.02 1022.59 1022.25 1021.65 1020.96 1020.03 1019.27
1018.30 1018.17 1018.16 1017.74 1017.43 1017.91 1018.30 1017.06 1016.03 1016.65 1017.58 1017.49 1017.91 1018.25 1018.78 1019.26 1019.72 1019.92 1020.60 1020.98 1021.54 1022.06 1022.55 1022.88 1023.09 1023.43 1023.67 1023.86 1024.22 1024.46 1024.58 1024.69 1024.89 1024.99 1024.90 1024.77 1024.55 1024.40 1024.54 1024.17 1023.64 1023.33 1023.12 1022.82 1022.35 1021.69 1021.08 1020.22 1019.37
1018.12 1018.35 1018.21 1018.04 1017.66 1018.04 1018.14 1016.78 1015.56 1016.06 1016.69 1016.03 1016.40 1017.12 1017.85 1018.15 1017.68 1018.83 1019.72 1020.53 1021.10 1021.59 1022.15 1022.55 1022.89 1023.18 1023.47 1023.84 1024.22 1024.39 1024.56 1024.62 1024.51 1024.44 1024.35 1024.20 1024.30 1024.34 1024.37 1023.92 1023.41 1022.96 1022.68 1022.43 1022.08 1021.48 1020.95 1020.18 1019.26
1017.58 1018.08 1018.29 1017.66 1017.65 1018.10 1017.38 1016.55 1015.59 1014.63 1015.27 1014.71 1014.80 1015.70 1016.29 1016.37 1017.21 1018.33 1019.27 1020.16 1020.98 1021.53 1021.87 1022.18 1022.58 1022.83 1023.21 1023.80 1024.21 1024.47 1024.41 1024.27 1024.24 1024.16 1024.35 1024.50 1024.38 1024.13 1023.74 1023.35 1022.93 1022.56 1022.17 1022.03 1021.80 1021.45 1020.86 1020.03 1019.59
1017.96 1018.44 1018.31 1017.93 1018.01 1018.43 1017.42 1016.06 1014.90 1014.36 1012.86 1012.87 1012.98 1014.07 1014.85 1015.81 1016.63 1017.47 1018.39 1019.44 1020.09 1020.58 1021.03 1021.61 1021.94 1022.33 1022.86 1023.39 1023.80 1023.99 1024.10 1024.02 1024.00 1024.06 1024.17 1024.06 1023.80 1023.66 1023.11 1022.72 1022.63 1022.63 1022.39 1022.20 1021.83 1021.57 1020.66 1020.14 1020.28
1018.21 1018.52 1018.44 1018.52 1018.55 1018.51 1018.12 1015.72 1014.25 1012.49 1012.11 1011.32 1011.53 1012.27 1013.23 1013.93 1015.04 1016.22 1017.23 1017.84 1019.04 1019.74 1020.25 1020.70 1021.20 1021.77 1022.37 1022.93 1023.48 1023.89 1024.09 1023.91 1023.77 1023.64 1023.45 1023.28 1023.29 1023.10 1022.89 1022.73 1022.65 1022.43 1022.28 1021.92 1021.82 1021.67 1021.37 1020.60 1020.50
1018.42 1017.72 1018.30 1018.91 1019.64 1019.72 1018.80 1014.42 1014.07 1012.62 1011.74 1010.72 1010.12 1011.31 1011.92 1012.81 1013.92 1014.94 1016.00 1017.08 1017.80 1018.57 1019.43 1020.02 1020.79 1021.34 1021.81 1022.29 1022.89 1023.27 1023.49 1023.51 1023.30 1023.33 1023.29 1023.21 1023.26 1023.12 1022.66 1022.40 1022.17 1021.83 1021.80 1021.50 1021.35 1021.11 1021.19 1021.17 1020.28
1017.70 1017.96 1018.86 1019.45 1020.00 1020.22 1019.11 1018.12 1012.99 1012.67 1011.96 1010.17 1009.11 1009.92 1011.01 1011.96 1012.84 1013.77 1014.58 1015.32 1016.37 1017.63 1018.56 1019.39 1020.23 1020.94 1021.36 1021.82 1022.31 1022.78 1023.04 1023.05 1022.79 1022.88 1022.87 1022.93 1022.78 1022.47 1021.95 1021.66 1021.55 1021.38 1021.43 1020.95 1020.82 1020.64 1020.85 1020.85 1020.31
1017.97 1018.58 1019.49 1020.32 1020.52 1019.48 1016.82 1016.55 1012.67 1011.98 1010.29 1009.66 1008.79 1009.12 1010.17 1011.50 1012.45 1013.10 1014.04 1015.20 1016.18 1017.13 1018.03 1018.86 1019.56 1020.13 1020.61 1021.20 1021.80 1022.30 1022.37 1022.40 1022.39 1022.40 1022.51 1022.44 1022.12 1021.81 1021.61 1021.30 1021.25 1021.19 1020.84 1020.60 1020.24 1020.09 1020.00 1019.79 1019.25
1018.29 1019.29 1020.43 1020.45 1020.51 1017.61 1016.15 1015.94 1010.99 1010.17 1009.18 1008.47 1008.19 1008.84 1010.20 1011.23 1012.24 1013.06 1013.84 1014.62 1015.54 1016.39 1017.16 1017.93 1018.59 1019.27 1019.77 1020.25 1020.76 1021.28 1021.77 1022.04 1021.97 1022.07 1022.15 1021.84 1021.28 1021.18 1020.85 1020.79 1020.86 1020.69 1020.30 1019.95 1019.68 1019.19 1018.92 1018.60 1018.01
1018.33 1018.83 1020.02 1019.86 1020.07 1016.77 1015.79 1012.53 1008.22 1007.97 1007.32 1007.58 1008.33 1008.79 1009.93 1010.87 1011.68 1012.36 1012.95 1013.76 1014.31 1015.24 1016.31 1017.16 1017.95 1018.66 1019.21 1019.74 1020.22 1020.77 1021.22 1021.43 1021.58 1021.67 1021.57 1021.29 1021.07 1020.82 1020.55 1020.46 1020.36 1019.93 1019.62 1019.20 1018.92 1018.36 1017.79 1017.35 1016.78
1018.45 1018.57 1017.99 1018.99 1020.37 1017.95 1012.73 1009.22 1007.90 1007.29 1007.34 1007.81 1008.16 1008.96 1009.60 1010.28 1011.04 1011.66 1012.38 1012.85 1013.69 1014.40 1015.12 1016.31 1017.28 1018.04 1018.62 1019.24 1019.85 1020.45 1020.88 1021.03 1021.10 1020.90 1020.85 1020.62 1020.57 1020.38 1020.06 1019.91 1019.63 1019.42 1018.91 1018.33 1017.80 1017.23 1016.66 1016.20 1015.62
1017.28 1017.48 1018.39 1018.85 1018.86 1016.84 1010.59 1006.97 1005.98 1006.47 1006.32 1006.94 1007.74 1008.02 1008.66 1009.63 1010.38 1011.05 1011.78 1012.47 1013.25 1013.84 1014.52 1015.60 1016.43 1017.28 1018.16 1018.90 1019.62 1020.11 1020.33 1020.34 1020.49 1020.50 1020.20 1020.47 1020.43 1020.03 1019.89 1019.44 1018.89 1018.53 1017.82 1017.25 1016.81 1016.14 1015.66 1014.97 1014.19
1017.41 1017.34 1017.53 1017.45 1016.81 1015.68 1012.27 1004.33 1003.35 1003.82 1004.84 1005.87 1006.14 1006.66 1007.91 1008.85 1009.46 1010.31 1011.00 1011.63 1012.39 1013.27 1013.89 1015.01 1016.07 1017.07 1017.87 1018.74 1019.47 1020.00 1020.23 1020.35 1020.49 1020.39 1020.38 1020.39 1019.86 1019.39 1019.00 1018.59 1017.96 1017.56 1017.14 1016.48 1015.74 1015.21 1014.61 1013.87 1013.13
1015.15 1015.09 1015.51 1015.87 1015.19 1014.45 1012.86 1001.14 1002.01 1002.65 1003.55 1004.54 1005.32 1006.51 1007.18 1008.01 1008.74 1009.43 1010.10 1010.89 1011.75 1012.62 1013.68 1014.52 1015.59 1016.53 1017.48 1018.48 1019.27 1019.54 1019.79 1019.89 1019.87 1019.72 1019.54 1019.33 1019.01 1018.56 1018.38 1017.81 1017.45 1017.11 1016.61 1015.82 1015.18 1014.17 1013.49 1012.80 1011.97
Thickness
5752 5751 5749 5742 5719 5704 5688 5696 5700 5698 5698 5693 5691 5692 5691 5676 5682 5677 5668 5667 5668 5668 5671 5675 5679 5681 5682 5683 5685 5685 5686 5686 5686 5686 5686 5686 5686 5687 5687 5688 5690 5690 5690 5690 5692 5692 5693 5693 5694
5750 5748 5743 5723 5704 5692 5692 5697 5698 5700 5694 5688 5688 5685 5683 5677 5673 5671 5668 5666 5666 5668 5672 5673 5676 5677 5678 5679 5679 5679 5680 5680 5680 5681 5681 5682 5682 5682 5682 5683 5685 5686 5686 5687 5689 5691 5692 5691 5691
5747 5744 5730 5710 5689 5692 5693 5701 5700 5697 5691 5693 5684 5679 5679 5676 5672 5671 5668 5666 5666 5667 5668 5669 5671 5672 5672 5673 5674 5675 5675 5674 5674 5675 5676 5676 5675 5676 5677 5676 5678 5680 5682 5682 5684 5686 5687 5689 5690
5741 5734 5718 5707 5702 5701 5705 5704 5701 5692 5690 5690 5685 5681 5673 5673 5672 5669 5665 5664 5664 5664 5664 5665 5666 5666 5667 5669 5669 5669 5669 5669 5669 5670 5670 5670 5669 5670 5670 5670 5673 5674 5675 5677 5678 5681 5682 5683 5683
5732 5719 5700 5695 5698 5702 5702 5706 5701 5694 5694 5686 5684 5679 5673 5670 5667 5665 5662 5660 5660 5658 5659 5660 5660 5660 5662 5663 5664 5664 5665 5665 5665 5665 5665 5664 5664 5665 5665 5665 5666 5667 5668 5669 5670 5672 5674 5677 5678
5718 5710 5693 5690 5692 5700 5703 5702 5699 5693 5685 5678 5678 5671 5669 5669 5664 5660 5658 5655 5653 5653 5652 5652 5653 5654 5656 5657 5657 5658 5659 5659 5659 5658 5658 5659 5660 5660 5659 5659 5660 5660 5659 5660 5663 5665 5668 5671 5673
5712 5701 5693 5690 5691 5695 5701 5697 5692 5688 5680 5679 5676 5670 5666 5662 5660 5656 5653 5650 5649 5649 5650 5651 5651 5651 5651 5651 5650 5650 5650 5651 5650 5650 5651 5651 5652 5654 5654 5653 5654 5656 5656 5658 5659 5658 5660 5663 5666
5707 5698 5688 5685 5686 5692 5699 5695 5691 5690 5683 5675 5674 5674 5671 5666 5655 5650 5647 5645 5645 5645 5644 5644 5645 5644 5643 5643 5643 5643 5643 5644 5644 5642 5642 5643 5643 5642 5644 5645 5645 5648 5649 5650 5650 5654 5654 5655 5657
5711 5691 5683 5693 5684 5698 5692 5691 5682 5677 5675 5672 5673 5670 5668 5664 5652 5645 5642 5640 5640 5640 5639 5638 5638 5638 5638 5636 5635 5635 5636 5635 5634 5634 5634 5634 5634 5634 5634 5632 5635 5635 5637 5638 5640 5644 5645 5644 5647
5703 5687 5695 5699 5693 5697 5691 5690 5681 5677 5672 5671 5668 5663 5657 5655 5651 5648 5644 5642 5637 5635 5632 5631 5630 5630 5630 5628 5627 5627 5627 5625 5625 5625 5625 5625 5623 5623 5623 5624 5624 5626 5626 5628 5629 5631 5633 5637 5636
5703 5696 5702 5706 5700 5698 5691 5687 5677 5675 5671 5681 5679 5666 5655 5652 5647 5644 5639 5636 5634 5630 5626 5624 5624 5625 5625 5624 5622 5619 5618 5617 5616 5615 5614 5613 5613 5612 5613 5614 5614 5614 5615 5614 5616 5619 5620 5621 5623
5705 5705 5701 5706 5704 5697 5693 5682 5680 5675 5692 5682 5678 5670 5659 5652 5649 5646 5640 5635 5630 5626 5623 5620 5620 5619 5618 5616 5614 5610 5608 5606 5604 5602 5601 5601 5600 5600 5599 5600 5602 5604 5605 5604 5603 5605 5605 5606 5607
5703 5701 5701 5702 5697 5694 5686 5686 5683 5681 5684 5676 5668 5661 5658 5653 5646 5639 5635 5630 5626 5624 5620 5616 5613 5612 5610 5607 5603 5601 5598 5595 5592 5590 5587 5586 5586 5586 5586 5586 5586 5583 5583 5586 5587 5590 5590 5592 5594
5699 5696 5694 5693 5692 5688 5685 5682 5681 5692 5674 5669 5663 5662 5657 5652 5646 5633 5628 5626 5623 5621 5616 5610 5606 5603 5600 5597 5594 5591 5588 5584 5582 5580 5577 5575 5574 5573 5573 5573 5573 5572 5570 5570 5571 5573 5577 5577 5580
5693 5689 5686 5685 5684 5681 5678 5676 5674 5688 5671 5670 5663 5659 5652 5648 5639 5638 5631 5625 5621 5615 5608 5602 5598 5593 5591 5587 5584 5580 5576 5574 5573 5571 5569 5566 5563 5560 5560 5559 5557 5555 5554 5553 5556 5557 5558 5562 5565
5685 5678 5677 5686 5676 5675 5674 5682 5692 5676 5668 5673 5659 5653 5651 5645 5641 5631 5626 5620 5611 5605 5600 5595 5592 5587 5584 5581 5577 5573 5568 5565 5563 5560 5556 5553 5550 5550 5548 5546 5542 5538 5535 5536 5535 5535 5536 5540 5544
5668 5672 5668 5669 5669 5668 5661 5678 5693 5670 5662 5673 5660 5654 5647 5642 5632 5627 5621 5616 5610 5604 5596 5590 5586 5581 5577 5573 5568 5562 5558 5555 5550 5546 5543 5540 5538 5536 5531 5529 5527 5524 5519 5516 5516 5515 5516 5520 5524
5668 5662 5659 5660 5668 5657 5651 5665 5692 5678 5662 5679 5673 5658 5646 5643 5644 5630 5618 5610 5604 5597 5590 5583 5577 5572 5568 5562 5556 5552 5547 5544 5541 5537 5534 5530 5525 5521 5516 5513 5512 5510 5505 5502 5499 5499 5498 5501 5505
5670 5657 5654 5660 5659 5649 5650 5660 5679 5694 5667 5679 5673 5656 5649 5648 5641 5625 5613 5603 5593 5587 5581 5576 5569 5564 5558 5551 5544 5539 5536 5533 5528 5524 5517 5511 5508 5507 5503 5500 5498 5494 5493 5487 5481 5478 5480 5483 5480
5656 5648 5643 5647 5646 5636 5640 5652 5671 5677 5695 5691 5686 5667 5654 5645 5630 5620 5609 5598 5590 5584 5577 5569 5564 5557 5550 5542 5535 5530 5525 5521 5516 5509 5503 5499 5496 5492 5491 5489 5481 5473 5470 5462 5460 5458 5463 5464 5455
5641 5635 5637 5639 5630 5624 5613 5627 5650 5680 5680 5688 5686 5676 5660 5653 5637 5620 5608 5601 5588 5580 5573 5566 5558 5551 5542 5533 5526 5519 5513 5509 5504 5498 5492 5488 5482 5478 5474 5468 5461 5455 5448 5446 5441 5437 5435 5438 5434
5631 5638 5635 5628 5615 5606 5612 5640 5640 5661 5678 5684 5690 5666 5666 5649 5638 5624 5610 5598 5588 5579 5568 5559 5549 5541 5534 5526 5517 5511 5506 5500 5493 5487 5480 5473 5466 5461 5458 5452 5446 5440 5433 5430 5425 5422 5416 5409 5412
5634 5629 5621 5612 5601 5572 5593 5583 5636 5630 5652 5680 5689 5671 5656 5644 5631 5619 5609 5601 5588 5573 5560 5550 5540 5529 5522 5515 5507 5499 5491 5487 5482 5476 5470 5462 5454 5449 5444 5439 5432 5425 5417 5414 5409 5404 5395 5388 5387
5616 5614 5594 5564 5565 5554 5621 5609 5617 5632 5648 5663 5674 5669 5655 5630 5617 5610 5599 5588 5575 5562 5549 5538 5529 5521 5513 5505 5496 5488 5482 5477 5471 5465 5458 5451 5444 5436 5427 5421 5414 5406 5404 5397 5393 5386 5378 5370 5366
5612 5601 5580 5579 5561 5603 5572 5568 5649 5644 5646 5661 5674 5661 5640 5620 5603 5592 5581 5578 5568 5554 5543 5532 5522 5514 5507 5500 5492 5483 5473 5465 5460 5453 5445 5439 5434 5423 5417 5410 5400 5391 5386 5380 5375 5370 5362 5352 5346
5589 5595 5577 5565 5572 5618 5562 5586 5655 5639 5656 5651 5643 5636 5621 5609 5594 5584 5576 5569 5564 5550 5536 5525 5514 5506 5499 5490 5481 5471 5462 5455 5447 5441 5432 5425 5417 5410 5402 5394 5385 5378 5371 5365 5357 5352 5345 5336 5325
5579 5577 5586 5558 5444 5513 5614 5625 5628 5628 5629 5630 5626 5611 5611 5600 5583 5575 5565 5563 5553 5542 5532 5518 5507 5497 5488 5479 5468 5458 5449 5442 5436 5429 5421 5411 5401 5393 5386 5377 5371 5362 5355 5350 5345 5337 5329 5318 5302
5578 5571 5562 5539 5549 5514 5622 5638 5638 5632 5642 5636 5622 5619 5609 5592 5575 5565 5555 5551 5540 5532 5522 5509 5500 5489 5477 5466 5454 5446 5438 5433 5424 5415 5407 5393 5380 5373 5365 5360 5355 5349 5344 5338 5330 5323 5312 5299 5285
5551 5551 5550 5552 5533 5540 5581 5636 5634 5650 5640 5634 5629 5616 5601 5583 5568 5553 5548 5541 5532 5522 5513 5500 5488 5474 5463 5451 5441 5431 5423 5414 5403 5393 5382 5371 5365 5359 5353 5348 5345 5338 5330 5323 5316 5305 5293 5279 5263
5553 5566 5568 5552 5545 5493 5500 5625 5659 5649 5635 5624 5621 5602 5588 5572 5557 5546 5542 5533 5524 5514 5499 5490 5477 5464 5452 5439 5427 5418 5408 5399 5389 5381 5372 5363 5354 5346 5339 5337 5331 5321 5314 5307 5297 5289 5274 5258 5246